Weather observations for the past three days for
Roswell International Air Center Airport
Imperial (Metric)
Date Time (mdt) Wind (mph) Vis. (mi.) Weather Sky Cond. Temperature (ºF) Relative Humidity Wind Chill (°F) Heat Index (°F) Pressure Precipitation (in)
Air Dwpt 6 hour altimeter (in) sea level (mb) 1 hr 3 hr 6 hr
Max. Min.
18 08:51 S 8 10.00 Fair CLR 84 52 33% 82 29.78 1000.5
18 07:51 S 12 10.00 Fair CLR 79 59 50% 80 29.77 1000.1
18 06:51 S 9 10.00 Fair CLR 73.9 60.1 62% 29.75 999.4
18 05:51 S 13 10.00 Fair CLR 73.9 59 82.9 73.9 60% 29.72 998.4
18 04:51 S 13 10.00 Fair CLR 75.9 59 56% 78 29.7 997.6
18 03:51 S 14 10.00 Fair CLR 78.1 59 52% 79 29.69 996.9
18 02:51 S 18 G 28 10.00 Fair CLR 79 59 50% 80 29.68 996.7
18 01:51 S 16 G 25 10.00 Fair CLR 81 60.1 49% 82 29.68 996.7
18 00:51 S 20 G 30 9.00 Fair CLR 82.9 57.9 43% 83 29.68 996.8
17 23:51 S 16 10.00 Fair CLR 82 42.1 102 80.1 24% 80 29.68 997.0
17 22:51 SW 10 10.00 Fair CLR 84 28 13% 81 29.66 996.2
17 21:51 SW 14 10.00 Mostly Cloudy BKN120 89.1 27 11% 85 29.64 995.7
17 20:51 SW 14 10.00 Fair CLR 91 26.1 9% 87 29.63 995.3
17 19:51 SW 18 10.00 Fair CLR 96.1 28 9% 91 29.62 994.9
17 18:51 SW 21 G 28 10.00 Fair and Breezy CLR 99 25 7% 93 29.6 994.5
17 17:51 SW 22 G 33 10.00 Fair and Breezy CLR 102 27 108 96.1 7% 96 29.59 994.0
17 16:51 S 28 G 37 10.00 Fair and Windy CLR 106 26.1 6% 99 29.6 994.0
17 15:51 SW 30 G 47 8.00 Fair and Windy CLR 107.1 26.1 6% 100 29.59 993.6
17 14:51 S 31 G 38 9.00 Fair and Windy CLR 106 30 7% 99 29.62 994.6
17 13:51 S 23 G 37 10.00 Fair and Breezy CLR 106 41 11% 101 29.65 995.5
17 12:51 SE 14 G 24 10.00 Fair CLR 100 48.9 18% 97 29.69 997.2
17 11:51 S 10 G 20 10.00 Fair CLR 96.1 48 96.1 72 19% 93 29.73 998.3
17 10:51 S 10 10.00 Fair CLR 91.9 52 26% 89 29.75 999.1
17 09:51 S 13 10.00 Fair CLR 88 54 31% 86 29.76 999.8
17 08:51 S 16 10.00 Fair CLR 82.9 55 38% 82 29.78 1000.5
17 07:51 S 14 10.00 Fair CLR 80.1 55 42% 80 29.78 1000.3
17 06:51 SW 3 10.00 Fair CLR 75 55.9 52% 78 29.77 1000.0
17 05:51 SW 6 10.00 Fair CLR 73 55 88 73 53% 29.76 999.7
17 04:51 S 5 10.00 Fair CLR 75.9 55.9 50% 78 29.75 999.0
17 03:51 S 13 10.00 Fair CLR 79 55.9 45% 80 29.74 998.8
17 02:51 S 15 10.00 Fair CLR 81 57 44% 81 29.75 999.1
17 01:51 S 20 G 29 10.00 Fair CLR 82.9 57.9 43% 83 29.75 999.2
17 00:51 S 22 10.00 Fair and Breezy CLR 84.9 57.9 40% 84 29.76 999.6
16 23:51 S 20 G 32 8.00 A Few Clouds FEW007 88 57 105.1 87.1 35% 87 29.76 999.4
16 22:51 S 22 G 35 10.00 Fair and Breezy CLR 90 55.9 32% 88 29.75 999.2
16 21:51 SW 13 10.00 Fair CLR 89.1 23 9% 85 29.71 997.9
16 20:51 S 12 10.00 Fair CLR 91 25 9% 87 29.69 997.6
16 19:51 S 15 10.00 Fair CLR 99 21 6% 93 29.67 996.7
16 18:51 S 21 G 28 10.00 Fair and Breezy CLR 104 21.9 5% 97 29.67 996.4
16 17:51 SE 18 G 30 10.00 Fair CLR 105.1 26.1 107.1 93.9 6% 98 29.67 996.6
16 16:51 S 24 G 32 10.00 Fair and Breezy CLR 107.1 27 6% 100 29.7 997.4
16 15:51 S 20 G 33 10.00 Fair CLR 107.1 35.1 8% 101 29.72 998.0
16 14:51 S 12 G 23 10.00 Fair CLR 105.1 34 8% 99 29.74 998.9
16 13:51 SE 15 G 23 10.00 Fair CLR 102.9 45 14% 99 29.77 999.9
16 12:51 S 13 G 22 10.00 Fair CLR 98.1 50 20% 95 29.81 1001.3
16 11:51 S 13 10.00 Fair CLR 93.9 55 93.9 73 27% 92 29.84 1002.3
16 10:51 SE 9 G 20 10.00 Fair CLR 88 57.9 36% 87 29.85 1003.1
16 09:51 S 15 10.00 Fair CLR 86 57.9 39% 85 29.86 1003.4
16 08:51 S 16 10.00 Fair CLR 82.9 57.9 43% 83 29.88 1004.0
16 07:51 SE 13 10.00 Fair CLR 79 57 47% 80 29.88 1004.3
16 06:51 S 8 10.00 Fair CLR 75.9 57 52% 78 29.87 1003.9
16 05:51 SE 7 10.00 Fair CLR 73 55.9 86 73 55% 29.86 1003.5
16 04:51 E 5 10.00 Fair CLR 73.9 55.9 54% 29.85 1003.2
16 03:51 E 5 10.00 Fair CLR 75.9 55.9 50% 78 29.85 1002.9
16 02:51 SE 7 10.00 Fair CLR 79 55.9 45% 80 29.84 1002.6
16 01:51 S 13 10.00 Fair CLR 81 55.9 42% 81 29.84 1002.5
16 00:51 SE 14 G 25 10.00 Fair CLR 84 57 40% 83 29.86 1003.2
15 23:51 SE 14 G 24 10.00 Fair CLR 86 57 98.1 84.9 37% 85 29.85 1003.0
15 22:51 SE 9 10.00 Fair CLR 87.1 53.1 31% 85 29.83 1002.6
15 21:51 NE 5 10.00 Fair CLR 88 48.9 26% 85 29.81 1001.8
15 20:51 E 7 10.00 Fair CLR 91 48 23% 88 29.79 1001.3
15 19:51 NE 7 10.00 Fair CLR 93 48.9 22% 90 29.79 1001.1
15 18:51 NE 9 10.00 Fair CLR 96.1 43 16% 92 29.78 1000.9
15 17:51 E 8 10.00 Fair CLR 97 45 99 87.1 17% 93 29.79 1001.5
15 16:51 SE 3 10.00 Fair CLR 97 44.1 16% 93 29.81 1002.0
15 15:51 S 9 G 16 10.00 Fair CLR 97 54 24% 95 29.84 1002.9
15 14:51 Vrbl 7 10.00 Fair CLR 96.1 59 29% 96 29.87 1004.0
15 13:51 S 13 G 20 10.00 Fair CLR 93 60.1 33% 93 29.89 1004.9
15 12:51 SE 7 G 21 10.00 Fair CLR 90 60.1 37% 90 29.92 1006.1
15 11:51 S 13 G 20 10.00 Fair CLR 87.1 60.1 88 68 40% 87 29.96 1007.5
15 10:51 S 12 G 20 10.00 Fair CLR 84.9 60.1 43% 85 29.98 1008.2
15 09:51 SW 7 G 18 10.00 Fair CLR 81 61 51% 82 30 1008.8
Date Time (mdt) Wind (mph) Vis. (mi.) Weather Sky Cond. Air Dwpt Max. Min. Relative Humidity Wind Chill (°F) Heat Index (°F) altimeter (in) sea level (mb) 1 hr 3 hr 6 hr
6 hour
Temperature (ºF) Pressure Precipitation (in)